Regional Weather Roundup
Issued by NWS Bismarck, ND

Home | Current Version | Previous Version | Text Only | Print | Product List | Glossary On
Versions: 1 2 3 4 5 6 7 8 9 10 11 12 13 14 15 16 17 18 19 20 21 22 23 24 25 26 27 28 29 30 31 32 33 34 35 36 37 38 39 40 41 42 43 44 45 46 47 48 49 50
000
ASUS43 KBIS 260710
RWRBIS

NWR BROADCAST TEXT
NATIONAL WEATHER SERVICE BISMARCK ND
100 AM CST FRI DEC 26 2014

NOTE: "FAIR" INDICATES FEW OR NO CLOUDS BELOW 12,000 FEET WITH NO
SIGNIFICANT WEATHER AND/OR OBSTRUCTIONS TO VISIBILITY.


CITY           SKY/WX    TMP DP  RH WIND       PRES   REMARKS
WILLISTON      CLOUDY    15  10  80 NW7       30.11S WCI   5
MINOT          CLOUDY    11   4  73 W20       30.08R WCI  -7
MINOT AFB      CLOUDY     9   5  85 NW21      30.08R WCI -11
BISMARCK       CLOUDY    25  20  81 N9        30.04S WCI  15
DICKINSON      CLOUDY    19  14  81 NW10      30.02R WCI   7
GARRISON         N/A     17  11  77 NW18      30.05R WCI   1
HETTINGER ARPT CLOUDY    21  16  81 NW15      30.02S WCI   8
JAMESTOWN      CLOUDY    24  21  88 N8        29.99S WCI  15
BEACH          CLOUDY    16  14  93 N10       30.06S WCI   3
CARRINGTON     CLOUDY    23  23 100 MISG      30.01S
CROSBY         CLOUDY    10   7  85 W12       30.11R WCI  -4
HARVEY         CLOUDY    19  19 100 NW8       30.03F WCI   9
HAZEN          CLOUDY    21  16  79 N14       30.07S WCI   8
LINTON         CLOUDY    25  25 100 N12       30.01S WCI  14
MANDAN         CLOUDY    23  19  86 N10       30.03S WCI  12
OAKES            N/A     25  25 100 N8        29.98S WCI  16
RUGBY          FLURRIES  19  18  93 NW9       30.04F WCI   9
STANLEY        FLURRIES   9   9 100 NW13      30.07S WCI  -7
TIOGA          FLURRIES  12  12 100 W10G16    30.10S WCI  -1
WATFORD CITY   FLURRIES  18  12  79 NW9       30.07S WCI   6
$$

CITY           SKY/WX    TMP DP  RH WIND       PRES   REMARKS
GRAND FORKS    CLOUDY    25  19  78 N12       30.03R WCI  14
GRAND FORKS AF CLOUDY    25  25 100 N8        30.04R WCI  16
DEVILS LAKE    CLOUDY    21  16  79 NW13      30.02S WCI   9
FARGO          CLOUDY    26  21  81 N14       30.00S WCI  14
CANDO          CLOUDY    19  18  93 NW8       30.04S WCI   9
CAVALIER       CLOUDY    25  19  80 N10       30.04S WCI  15
GWINNER        CLOUDY    28  28 100 N12       29.99S WCI  18
LANGDON        CLOUDY    21  19  93 N13       30.00S FOG     WCI   9
ROLLA          CLOUDY    18  18 100 N16       30.03R WCI   3
WALHALLA         N/A     25  19  80 NW9       30.05S WCI  15
$$

CITY           SKY/WX    TMP DP  RH WIND       PRES   REMARKS
ABERDEEN       CLOUDY    26  23  88 N16       29.98R WCI  14
MOBRIDGE       CLOUDY    26  21  81 NW14      29.97S WCI  14
BUFFALO          N/A     21  16  81 N10       29.95S WCI  10
RAPID CITY     CLOUDY    22  17  81 N17       29.98S WCI   8
GLASGOW        CLOUDY    19  14  81 E12       30.06R WCI   7
SIDNEY         CLOUDY    16  12  86 W6        30.12F WCI   7
WOLF POINT     CLOUDY    16  11  80 E5        30.11S WCI   9
GLENDIVE       MOCLDY    18  12  79 S3        30.08S
MILES CITY     CLOUDY    23  18  81 NE3       30.06F
BAKER          CLOUDY    19  14  81 NW13      30.04R WCI   6
$$

CITY           SKY/WX    TMP DP  RH WIND       PRES   REMARKS
BILLINGS       CLOUDY    23  19  85 CALM      30.00S
GREAT FALLS    CLEAR     15  10  80 SW12      29.94R WCI   2
REGINA         MOCLDY    -6  -9  84 N5        30.11S WCI -17
ESTEVAN        FLURRIES   9   5  85 NW13      30.10S WCI  -7
$$




USA.gov is the U.S. government's official web portal to all federal, state and local government web resources and services.